Location: Chiroubles
(46.1812°N, 4.6660°E)
Time: 10:19:26
(UTC+00:00)

SR - Pass Details

Date: 29 November 2020
Orbit: 575 x 880 km, 66.7° (Epoch: 19 January)

Event Time Altitude Azimuth Distance (km) Brightness Sun altitude
Rises 17:50:21 0° 204° (SSW) 2,794 ? -18.9°
Reaches altitude 10° 17:52:31 10° 202° (SSW) 1,918 ? -19.2°
Maximum altitude 17:56:47 69° 120° (ESE) 665 ? -20.0°
Enters shadow 17:57:54 48° 56° (NE) 824 ? -20.2°
